DW4277 Weather Reports


time (UTC)temp
F
wind
direction
speed
knots
gust
knots
rain 1hr
in
rain 24hr
in
rain mn
in
humidity
%
barometer
mb
20260506103028 73 190 14.8 34.8 0.00 0.00 0.00 48 1005.6
20260506101544 73 179 15.6 31.3 0.00 0.00 0.00 50 1005.6
20260506100025 73 179 8.7 26.9 0.00 0.00 0.00 49 1005.9
20260506094523 73 204 14.8 29.5 0.00 0.00 0.00 50 1006.1
20260506093021 73 202 7.0 21.7 0.00 0.00 0.00 53 1006.1
20260506091522 74 184 8.7 20.9 0.00 0.00 0.00 47 1006.2
20260506090015 73 157 1.7 14.8 0.00 0.00 0.00 50 1006.3
20260506084518 72 142 4.3 13.9 0.00 0.00 0.00 51 1006.3
20260506083008 72 211 1.7 13.9 0.00 0.00 0.00 53 1006.3
20260506081507 71 142 1.7 11.3 0.00 0.00 0.00 54 1006.3
20260506073104 70 187 0.0 6.1 0.00 0.00 0.00 56 1006.6
20260506071607 70 186 0.0 6.1 0.00 0.00 0.00 58 1006.7
20260506061539 65 186 0.0 0.0 0.00 0.00 0.00 64 1007.0
20260506044529 61 323 0.0 0.0 0.00 0.00 0.00 73 1006.7
20260506043028 60 336 0.0 0.0 0.00 0.00 0.00 74 1006.7
20260506041531 60 336 0.0 7.0 0.00 0.00 0.00 74 1006.5
20260506040025 61 338 1.7 11.3 0.00 0.00 0.00 74 1006.4
20260506034519 61 339 0.0 0.0 0.00 0.00 0.00 73 1006.4
20260506033016 62 340 0.0 11.3 0.00 0.00 0.00 72 1006.3
20260506031522 62 340 0.0 13.0 0.00 0.00 0.00 71 1006.3
20260506030020 62 338 3.5 20.0 0.00 0.00 0.00 71 1006.3
20260506024513 63 337 1.7 13.9 0.00 0.00 0.00 70 1006.2
20260506023012 63 333 0.0 9.6 0.00 0.00 0.00 70 1006.2
20260506021511 63 334 4.3 21.7 0.00 0.00 0.00 69 1006.1
20260506020013 64 346 7.0 20.0 0.00 0.00 0.00 68 1005.9
20260506014513 64 330 8.7 20.9 0.00 0.00 0.00 67 1005.8
20260506013021 64 350 3.5 16.5 0.00 0.00 0.00 66 1005.8
20260506011506 64 345 8.7 28.7 0.00 0.00 0.00 67 1005.8
20260506010003 62 334 15.6 26.1 0.00 0.00 0.00 70 1005.6
20260506004600 60 230 0.0 0.0 0.00 0.00 0.00 68 1005.5
20260506003057 60 230 0.0 0.0 0.00 0.00 0.00 67 1005.2
20260506001614 60 230 0.0 0.0 0.00 0.00 0.00 67 1005.0
20260506000053 60 230 0.0 11.3 0.00 0.00 0.00 66 1005.0
20260505234553 60 225 0.0 0.0 0.00 0.00 0.00 67 1004.8
20260505233055 60 225 0.0 8.7 0.00 0.00 0.00 66 1004.6
20260505231553 60 225 0.0 6.1 0.00 0.00 0.00 66 1004.6
20260505230047 60 225 0.0 7.0 0.00 0.00 0.00 65 1004.4
20260505224547 60 225 0.0 0.0 0.00 0.00 0.00 65 1004.2
20260505223048 61 225 0.0 12.2 0.00 0.00 0.00 64 1004.0
20260505221544 61 225 0.0 0.0 0.00 0.00 0.00 63 1003.9
20260505220041 62 224 0.0 5.2 0.00 0.00 0.00 61 1003.8
20260505214554 63 225 2.6 13.9 0.00 0.00 0.00 60 1003.6
20260505213050 63 224 2.6 15.6 0.00 0.00 0.00 60 1003.6
20260505211534 62 213 4.3 9.6 0.00 0.00 0.00 61 1003.5
20260505210034 63 212 0.0 7.0 0.00 0.00 0.00 60 1003.4
20260505204536 64 211 1.7 13.9 0.00 0.00 0.00 59 1003.0
20260505203039 64 224 5.2 20.0 0.00 0.00 0.00 57 1002.8
20260505201545 65 235 6.1 17.4 0.00 0.00 0.00 57 1002.7
20260505200032 65 240 7.8 24.3 0.00 0.00 0.00 56 1002.7
20260505194531 66 224 9.6 20.0 0.00 0.00 0.00 55 1002.7
20260505193042 66 230 6.1 23.5 0.00 0.00 0.00 54 1002.6
20260505191530 66 230 8.7 22.6 0.00 0.00 0.00 54 1002.7
20260505190036 66 225 5.2 29.5 0.00 0.00 0.00 53 1002.6
20260505184529 67 219 7.0 22.6 0.00 0.00 0.00 53 1002.7
20260505183044 67 208 9.6 28.7 0.00 0.00 0.00 52 1002.6
20260505181530 68 222 10.4 33.0 0.00 0.00 0.00 50 1002.4
20260505180036 69 247 13.9 34.8 0.00 0.00 0.00 49 1002.5
20260505174536 70 217 13.0 40.8 0.00 0.00 0.00 48 1002.5
20260505173035 71 230 11.3 41.7 0.00 0.00 0.00 46 1002.6
20260505171530 72 230 20.0 42.6 0.00 0.00 0.00 45 1002.5
20260505170027 73 215 20.9 41.7 0.00 0.00 0.00 44 1002.6
20260505164533 73 213 10.4 46.1 0.00 0.00 0.00 44 1002.6
20260505163024 73 230 17.4 48.7 0.00 0.00 0.00 45 1002.7
20260505161522 74 253 17.4 40.8 0.00 0.00 0.00 44 1002.9
20260505153027 75 250 12.2 45.2 0.00 0.00 0.00 42 1002.9
20260505151519 76 263 21.7 46.9 0.00 0.00 0.00 41 1003.0
20260505124507 81 214 25.2 48.7 0.00 0.00 0.00 30 1004.0
20260505123005 82 224 19.1 38.2 0.00 0.00 0.00 28 1004.2
20260505121504 81 215 16.5 38.2 0.00 0.00 0.00 26 1004.4
20260505120002 81 257 13.9 38.2 0.00 0.00 0.00 28 1004.6
20260505114604 80 226 13.0 33.0 0.00 0.00 0.00 29 1004.6
20260505113058 80 226 13.9 39.1 0.00 0.00 0.00 29 1004.8
20260505111600 80 187 13.0 40.0 0.00 0.00 0.00 30 1004.8